Time,TemperatureF,DewpointF,PressureIn,WindDirection,WindDirectionDegrees,WindSpeedMPH,WindSpeedGustMPH,Humidity,HourlyPrecipIn,Conditions,Clouds,dailyrainin,SoftwareType,DateUTC
2013-08-03 00:02:00,62.0,59.0,30.07,North,0,0.0,0.0,91,44.16,,,-99.99,,2013-08-03 07:02:00,
2013-08-03 00:21:00,62.0,59.0,30.07,North,0,0.0,0.0,91,44.16,,,-99.99,,2013-08-03 07:21:00,
2013-08-03 00:32:00,62.0,59.0,30.07,North,0,0.0,0.0,91,44.16,,,-99.99,,2013-08-03 07:32:00,
2013-08-03 00:43:00,62.0,59.0,30.07,North,0,0.0,0.0,91,44.16,,,-99.99,,2013-08-03 07:43:00,
2013-08-03 00:52:00,62.0,59.0,30.07,North,0,0.0,0.0,91,44.16,,,-99.99,,2013-08-03 07:52:00,
2013-08-03 01:02:00,62.0,59.0,30.07,North,0,0.0,0.0,91,44.16,,,-99.99,,2013-08-03 08:02:00,
2013-08-03 01:11:00,62.0,60.0,30.07,North,0,0.0,0.0,92,44.16,,,-99.99,,2013-08-03 08:11:00,
2013-08-03 01:22:00,62.0,60.0,30.07,North,0,0.0,0.0,92,44.16,,,-99.99,,2013-08-03 08:22:00,
2013-08-03 01:32:00,62.0,60.0,30.07,North,0,0.0,0.0,92,44.16,,,-99.99,,2013-08-03 08:32:00,
2013-08-03 01:43:00,61.0,59.0,30.07,North,0,0.0,0.0,92,44.16,,,-99.99,,2013-08-03 08:43:00,
2013-08-03 01:52:00,61.0,59.0,30.07,North,0,0.0,0.0,92,44.16,,,-99.99,,2013-08-03 08:52:00,
2013-08-03 02:02:00,62.0,60.0,30.06,North,0,0.0,0.0,93,44.16,,,-99.99,,2013-08-03 09:02:00,
2013-08-03 02:12:00,62.0,60.0,30.06,North,0,0.0,0.0,93,44.16,,,-99.99,,2013-08-03 09:12:00,
2013-08-03 02:43:00,61.0,59.0,30.06,North,0,0.0,0.0,93,44.16,,,-99.99,,2013-08-03 09:43:00,
2013-08-03 02:53:00,61.0,59.0,30.06,North,0,0.0,0.0,93,44.16,,,-99.99,,2013-08-03 09:53:00,
2013-08-03 03:02:00,62.0,60.0,30.06,North,0,0.0,0.0,93,44.16,,,-99.99,,2013-08-03 10:02:00,
2013-08-03 03:22:00,62.0,60.0,30.06,North,0,0.0,0.0,93,44.16,,,-99.99,,2013-08-03 10:22:00,
2013-08-03 03:32:00,61.0,59.0,30.06,North,0,0.0,0.0,93,44.16,,,-99.99,,2013-08-03 10:32:00,
2013-08-03 03:42:00,61.0,59.0,30.06,North,0,0.0,0.0,93,44.16,,,-99.99,,2013-08-03 10:42:00,
2013-08-03 03:52:00,61.0,59.0,30.06,North,0,0.0,0.0,93,44.16,,,-99.99,,2013-08-03 10:52:00,
2013-08-03 04:02:00,62.0,60.0,30.06,North,0,0.0,0.0,93,44.16,,,-99.99,,2013-08-03 11:02:00,
2013-08-03 04:43:00,61.0,59.0,30.06,North,0,0.0,0.0,94,44.16,,,-99.99,,2013-08-03 11:43:00,
2013-08-03 04:53:00,61.0,59.0,30.06,North,0,0.0,0.0,94,44.16,,,-99.99,,2013-08-03 11:53:00,
2013-08-03 05:01:00,61.0,59.0,30.06,North,0,0.0,0.0,94,44.16,,,-99.99,,2013-08-03 12:01:00,
2013-08-03 05:11:00,61.0,59.0,30.06,North,0,0.0,0.0,94,44.16,,,-99.99,,2013-08-03 12:11:00,
2013-08-03 05:22:00,61.0,59.0,30.06,North,0,0.0,0.0,94,44.16,,,-99.99,,2013-08-03 12:22:00,
2013-08-03 05:32:00,61.0,59.0,30.06,North,0,0.0,0.0,94,44.16,,,-99.99,,2013-08-03 12:32:00,
2013-08-03 05:43:00,61.0,59.0,30.06,North,0,0.0,0.0,94,44.16,,,-99.99,,2013-08-03 12:43:00,
2013-08-03 05:52:00,61.0,59.0,30.06,North,0,0.0,0.0,94,44.16,,,-99.99,,2013-08-03 12:52:00,
2013-08-03 06:01:00,61.0,59.0,30.06,North,0,0.0,0.0,94,44.16,,,-99.99,,2013-08-03 13:01:00,
2013-08-03 06:12:00,61.0,59.0,30.06,North,0,0.0,0.0,94,44.16,,,-99.99,,2013-08-03 13:12:00,
2013-08-03 06:21:00,61.0,59.0,30.06,North,0,0.0,0.0,94,44.16,,,-99.99,,2013-08-03 13:21:00,
2013-08-03 06:43:00,61.0,60.0,30.07,North,0,0.0,0.0,95,44.16,,,-99.99,,2013-08-03 13:43:00,
2013-08-03 06:52:00,61.0,60.0,30.07,North,0,0.0,0.0,95,44.16,,,-99.99,,2013-08-03 13:52:00,
2013-08-03 07:02:00,61.0,60.0,30.07,North,0,0.0,0.0,95,44.16,,,-99.99,,2013-08-03 14:02:00,
2013-08-03 07:11:00,61.0,60.0,30.07,North,0,0.0,0.0,95,44.16,,,-99.99,,2013-08-03 14:11:00,
2013-08-03 07:22:00,61.0,60.0,30.07,North,0,0.0,0.0,95,44.16,,,-99.99,,2013-08-03 14:22:00,
2013-08-03 07:32:00,62.0,61.0,30.07,North,0,0.0,0.0,95,44.16,,,-99.99,,2013-08-03 14:32:00,
2013-08-03 07:42:00,61.0,60.0,30.07,North,0,0.0,0.0,95,44.16,,,-99.99,,2013-08-03 14:42:00,
2013-08-03 07:52:00,62.0,61.0,30.07,North,0,0.0,0.0,95,44.16,,,-99.99,,2013-08-03 14:52:00,
2013-08-03 08:01:00,62.0,60.0,30.07,North,0,0.0,0.0,94,44.16,,,-99.99,,2013-08-03 15:01:00,
2013-08-03 08:32:00,63.0,61.0,30.08,North,0,0.0,0.0,92,44.16,,,-99.99,,2013-08-03 15:32:00,
2013-08-03 08:43:00,63.0,61.0,30.08,North,0,0.0,0.0,92,44.16,,,-99.99,,2013-08-03 15:43:00,
2013-08-03 08:53:00,63.0,61.0,30.08,North,0,0.0,0.0,92,44.16,,,-99.99,,2013-08-03 15:53:00,
2013-08-03 09:01:00,64.0,61.0,30.07,North,0,0.0,0.0,90,44.16,,,-99.99,,2013-08-03 16:01:00,
2013-08-03 09:11:00,64.0,61.0,30.07,North,0,0.0,0.0,90,44.16,,,-99.99,,2013-08-03 16:11:00,
2013-08-03 09:22:00,64.0,60.0,30.07,North,0,0.0,0.0,88,44.16,,,-99.99,,2013-08-03 16:22:00,
2013-08-03 09:53:00,65.0,60.0,30.06,East,89,1.0,2.0,85,44.16,,,-99.99,,2013-08-03 16:53:00,
2013-08-03 10:02:00,66.0,61.0,30.06,SSW,193,0.0,1.0,84,44.16,,,-99.99,,2013-08-03 17:02:00,
2013-08-03 10:11:00,66.0,61.0,30.07,North,0,0.0,0.0,83,44.16,,,-99.99,,2013-08-03 17:11:00,
2013-08-03 10:32:00,67.0,61.0,30.06,North,0,0.0,0.0,80,44.16,,,-99.99,,2013-08-03 17:32:00,
2013-08-03 10:43:00,67.0,59.0,30.06,South,179,1.0,3.0,75,44.16,,,-99.99,,2013-08-03 17:43:00,
2013-08-03 10:52:00,68.0,59.0,30.05,SW,221,2.0,5.0,74,44.16,,,-99.99,,2013-08-03 17:52:00,
2013-08-03 11:02:00,69.0,60.0,30.05,South,172,2.0,4.0,72,44.16,,,-99.99,,2013-08-03 18:02:00,
2013-08-03 11:12:00,69.0,59.0,30.05,SSW,203,3.0,4.0,70,44.16,,,-99.99,,2013-08-03 18:12:00,
2013-08-03 11:21:00,69.0,59.0,30.05,SSW,203,3.0,4.0,70,44.16,,,-99.99,,2013-08-03 18:21:00,
2013-08-03 11:32:00,69.0,59.0,30.05,SSW,203,3.0,4.0,70,44.16,,,-99.99,,2013-08-03 18:32:00,
2013-08-03 11:42:00,69.0,59.0,30.05,SSW,203,3.0,4.0,70,44.16,,,-99.99,,2013-08-03 18:42:00,
2013-08-03 12:02:00,74.0,61.0,30.03,SW,222,1.0,5.0,63,44.16,,,-99.99,,2013-08-03 19:02:00,
2013-08-03 12:12:00,75.0,61.0,30.03,WNW,301,1.0,5.0,61,44.16,,,-99.99,,2013-08-03 19:12:00,
2013-08-03 12:52:00,77.0,61.0,30.01,WSW,242,1.0,5.0,58,44.16,,,-99.99,,2013-08-03 19:52:00,
2013-08-03 13:02:00,77.0,61.0,30.01,WSW,257,3.0,7.0,58,44.16,,,-99.99,,2013-08-03 20:02:00,
2013-08-03 13:12:00,77.0,61.0,30.01,WSW,257,3.0,7.0,58,44.16,,,-99.99,,2013-08-03 20:12:00,
2013-08-03 13:32:00,75.0,62.0,30.01,South,176,5.0,10.0,63,44.16,,,-99.99,,2013-08-03 20:32:00,
2013-08-03 13:42:00,75.0,62.0,30.01,South,170,5.0,12.0,64,44.16,,,-99.99,,2013-08-03 20:42:00,
2013-08-03 13:52:00,75.0,62.0,30.01,South,170,5.0,12.0,64,44.16,,,-99.99,,2013-08-03 20:52:00,
2013-08-03 14:01:00,76.0,62.0,30.01,West,273,4.0,10.0,61,44.16,,,-99.99,,2013-08-03 21:01:00,
2013-08-03 14:12:00,77.0,63.0,30.01,WSW,245,4.0,8.0,62,44.16,,,-99.99,,2013-08-03 21:12:00,
2013-08-03 14:32:00,77.0,63.0,30.01,SSW,203,4.0,10.0,62,44.16,,,-99.99,,2013-08-03 21:32:00,
2013-08-03 14:52:00,78.0,63.0,30.01,WSW,257,3.0,13.0,60,44.16,,,-99.99,,2013-08-03 21:52:00,
2013-08-03 15:02:00,78.0,63.0,30.01,WSW,257,3.0,13.0,60,44.16,,,-99.99,,2013-08-03 22:02:00,
2013-08-03 15:22:00,78.0,63.0,30.01,WSW,257,3.0,13.0,60,44.16,,,-99.99,,2013-08-03 22:22:00,
2013-08-03 16:02:00,80.0,63.0,29.99,South,177,2.0,8.0,57,44.16,,,-99.99,,2013-08-03 23:02:00,
2013-08-03 16:12:00,80.0,62.0,29.98,SSE,156,4.0,13.0,55,44.16,,,-99.99,,2013-08-03 23:12:00,
2013-08-03 16:22:00,80.0,63.0,29.98,SE,138,3.0,8.0,57,44.16,,,-99.99,,2013-08-03 23:22:00,
2013-08-03 16:32:00,80.0,62.0,29.98,SSE,149,4.0,11.0,55,44.16,,,-99.99,,2013-08-03 23:32:00,
2013-08-03 16:52:00,81.0,62.0,29.98,SW,219,5.0,15.0,53,44.16,,,-99.99,,2013-08-03 23:52:00,
2013-08-03 17:01:00,82.0,63.0,29.97,SE,142,3.0,14.0,53,44.16,,,-99.99,,2013-08-04 00:01:00,
2013-08-03 17:11:00,82.0,63.0,29.97,SE,142,3.0,14.0,53,44.16,,,-99.99,,2013-08-04 00:11:00,
2013-08-03 17:32:00,80.0,63.0,29.97,SSW,205,4.0,15.0,57,44.16,,,-99.99,,2013-08-04 00:32:00,
2013-08-03 17:42:00,80.0,63.0,29.97,SSW,205,4.0,15.0,57,44.16,,,-99.99,,2013-08-04 00:42:00,
2013-08-03 17:52:00,80.0,63.0,29.97,SSW,205,4.0,15.0,57,44.16,,,-99.99,,2013-08-04 00:52:00,
2013-08-03 18:01:00,79.0,63.0,29.97,SSW,200,3.0,10.0,58,44.16,,,-99.99,,2013-08-04 01:01:00,
2013-08-03 18:22:00,79.0,63.0,29.96,SSW,203,2.0,10.0,59,44.16,,,-99.99,,2013-08-04 01:22:00,
2013-08-03 18:32:00,79.0,63.0,29.96,SSW,201,5.0,10.0,58,44.16,,,-99.99,,2013-08-04 01:32:00,
2013-08-03 18:42:00,78.0,62.0,29.96,SSW,205,4.0,13.0,59,44.16,,,-99.99,,2013-08-04 01:42:00,
2013-08-03 18:52:00,78.0,62.0,29.96,SSW,205,4.0,13.0,59,44.16,,,-99.99,,2013-08-04 01:52:00,
2013-08-03 19:02:00,78.0,63.0,29.95,SSW,195,2.0,4.0,61,44.16,,,-99.99,,2013-08-04 02:02:00,
2013-08-03 19:21:00,78.0,63.0,29.96,SSW,200,2.0,7.0,60,44.16,,,-99.99,,2013-08-04 02:21:00,
2013-08-03 19:32:00,78.0,63.0,29.95,SW,224,2.0,7.0,61,44.16,,,-99.99,,2013-08-04 02:32:00,
2013-08-03 19:41:00,77.0,63.0,29.95,South,188,4.0,8.0,61,44.16,,,-99.99,,2013-08-04 02:41:00,
2013-08-03 19:52:00,78.0,64.0,29.96,South,172,1.0,3.0,62,44.16,,,-99.99,,2013-08-04 02:52:00,
2013-08-03 20:01:00,78.0,64.0,29.96,West,260,1.0,4.0,62,44.16,,,-99.99,,2013-08-04 03:01:00,
2013-08-03 20:11:00,78.0,63.0,29.96,SW,224,2.0,8.0,61,44.16,,,-99.99,,2013-08-04 03:11:00,
2013-08-03 20:21:00,78.0,63.0,29.96,SW,224,2.0,8.0,61,44.16,,,-99.99,,2013-08-04 03:21:00,
2013-08-03 20:31:00,77.0,63.0,29.96,WSW,257,2.0,7.0,63,44.16,,,-99.99,,2013-08-04 03:31:00,
2013-08-03 20:42:00,77.0,63.0,29.96,SW,224,2.0,4.0,63,44.16,,,-99.99,,2013-08-04 03:42:00,
2013-08-03 20:52:00,77.0,63.0,29.96,West,266,1.0,4.0,63,44.16,,,-99.99,,2013-08-04 03:52:00,
2013-08-03 21:01:00,77.0,63.0,29.96,West,266,1.0,4.0,63,44.16,,,-99.99,,2013-08-04 04:01:00,
2013-08-03 21:11:00,77.0,63.0,29.96,West,266,1.0,4.0,63,44.16,,,-99.99,,2013-08-04 04:11:00,
2013-08-03 21:21:00,77.0,63.0,29.96,West,266,1.0,4.0,63,44.16,,,-99.99,,2013-08-04 04:21:00,
2013-08-03 21:31:00,73.0,63.0,29.97,SE,128,1.0,3.0,72,44.16,,,-99.99,,2013-08-04 04:31:00,
2013-08-03 21:42:00,73.0,63.0,29.97,SE,128,1.0,3.0,72,44.16,,,-99.99,,2013-08-04 04:42:00,
2013-08-03 21:52:00,72.0,63.0,29.99,SSW,208,2.0,8.0,73,44.16,,,-99.99,,2013-08-04 04:52:00,
2013-08-03 22:02:00,73.0,64.0,29.99,North,0,0.0,0.0,73,44.16,,,-99.99,,2013-08-04 05:02:00,
2013-08-03 22:11:00,73.0,64.0,29.99,North,0,0.0,0.0,73,44.16,,,-99.99,,2013-08-04 05:11:00,
2013-08-03 22:21:00,73.0,64.0,29.99,North,0,0.0,0.0,73,44.16,,,-99.99,,2013-08-04 05:21:00,
2013-08-03 22:32:00,72.0,64.0,29.99,SSW,208,0.0,3.0,75,44.16,,,-99.99,,2013-08-04 05:32:00,
2013-08-03 22:42:00,72.0,64.0,29.99,SSW,208,0.0,3.0,75,44.16,,,-99.99,,2013-08-04 05:42:00,
2013-08-03 22:52:00,70.0,63.0,30.00,North,0,0.0,0.0,78,44.16,,,-99.99,,2013-08-04 05:52:00,
2013-08-03 23:01:00,70.0,63.0,30.00,North,0,0.0,0.0,79,44.16,,,-99.99,,2013-08-04 06:01:00,
2013-08-03 23:11:00,69.0,63.0,30.00,North,0,0.0,0.0,80,44.16,,,-99.99,,2013-08-04 06:11:00,
2013-08-03 23:22:00,69.0,63.0,30.00,North,0,0.0,0.0,81,44.16,,,-99.99,,2013-08-04 06:22:00,
2013-08-03 23:32:00,68.0,63.0,29.99,North,0,0.0,0.0,83,44.16,,,-99.99,,2013-08-04 06:32:00,
2013-08-03 23:43:00,67.0,62.0,29.99,North,0,0.0,0.0,84,44.16,,,-99.99,,2013-08-04 06:43:00,
2013-08-03 23:52:00,67.0,62.0,29.99,North,0,0.0,0.0,85,44.16,,,-99.99,,2013-08-04 06:52:00,